TimeAKDT,TemperatureF,Dew PointF,Humidity,Sea Level PressureIn,VisibilityMPH,Wind Direction,Wind SpeedMPH,Gust SpeedMPH,PrecipitationIn,Events,Conditions,WindDirDegrees,DateUTC
12:16 AM,23.0,15.8,74,29.50,3.0,NE,6.9,-,N/A,,Overcast,50,2013-09-20 08:16:00
12:36 AM,23.0,15.8,74,29.50,2.0,NE,8.1,-,N/A,,Overcast,50,2013-09-20 08:36:00
12:56 AM,23.0,15.8,74,29.50,2.5,NE,8.1,-,N/A,,Overcast,50,2013-09-20 08:56:00
1:16 AM,23.0,15.8,74,29.50,3.0,NE,6.9,-,N/A,,Overcast,50,2013-09-20 09:16:00
1:36 AM,23.0,15.8,74,29.49,2.0,NE,9.2,-,N/A,,Overcast,40,2013-09-20 09:36:00
1:56 AM,23.0,15.8,74,29.49,1.5,NNE,5.8,-,N/A,,Overcast,30,2013-09-20 09:56:00
2:16 AM,23.0,15.8,74,29.48,1.8,NE,5.8,-,N/A,,Overcast,40,2013-09-20 10:16:00
2:36 AM,23.0,15.8,74,29.48,2.5,NNE,4.6,-,N/A,,Overcast,30,2013-09-20 10:36:00
2:56 AM,23.0,15.8,74,29.47,2.5,NE,5.8,-,N/A,,Overcast,40,2013-09-20 10:56:00
3:16 AM,23.0,15.8,74,29.47,1.5,NE,8.1,-,N/A,,Overcast,40,2013-09-20 11:16:00
3:36 AM,21.2,15.8,80,29.46,3.0,North,4.6,-,N/A,,Overcast,360,2013-09-20 11:36:00
3:56 AM,21.2,15.8,80,29.46,5.0,NE,6.9,-,N/A,,Overcast,50,2013-09-20 11:56:00
4:16 AM,21.2,15.8,80,29.45,2.5,NE,5.8,-,N/A,,Overcast,50,2013-09-20 12:16:00
4:36 AM,21.2,15.8,80,29.44,3.0,NE,4.6,-,N/A,,Overcast,40,2013-09-20 12:36:00
4:56 AM,21.2,15.8,80,29.44,8.0,NE,4.6,-,N/A,,Overcast,50,2013-09-20 12:56:00
5:16 AM,21.2,15.8,80,29.43,8.0,ENE,6.9,-,N/A,,Overcast,60,2013-09-20 13:16:00
5:36 AM,21.2,15.8,80,29.43,6.0,NE,5.8,-,N/A,,Overcast,50,2013-09-20 13:36:00
5:56 AM,21.2,15.8,80,29.42,5.0,NE,4.6,-,N/A,,Overcast,50,2013-09-20 13:56:00
6:16 AM,21.2,15.8,80,29.42,4.0,NE,5.8,-,N/A,,Overcast,50,2013-09-20 14:16:00
6:36 AM,21.2,14.0,74,29.41,4.0,NE,5.8,-,N/A,,Overcast,50,2013-09-20 14:36:00
6:56 AM,21.2,14.0,74,29.41,5.0,NNE,4.6,-,N/A,,Overcast,20,2013-09-20 14:56:00
7:16 AM,21.2,14.0,74,29.40,7.0,North,5.8,-,N/A,,Overcast,360,2013-09-20 15:16:00
7:36 AM,21.2,15.8,80,29.40,2.5,North,3.5,-,N/A,,Overcast,10,2013-09-20 15:36:00
7:56 AM,21.2,15.8,80,29.39,1.5,North,4.6,-,N/A,,Overcast,10,2013-09-20 15:56:00
8:16 AM,21.2,15.8,80,29.39,2.5,North,4.6,-,N/A,,Overcast,360,2013-09-20 16:16:00
8:36 AM,21.2,14.0,74,29.38,5.0,North,3.5,-,N/A,,Overcast,10,2013-09-20 16:36:00
8:56 AM,21.2,14.0,74,29.38,6.0,Calm,Calm,-,N/A,,Overcast,0,2013-09-20 16:56:00
9:16 AM,21.2,14.0,74,29.37,9.0,North,5.8,-,N/A,,Overcast,10,2013-09-20 17:16:00
9:36 AM,21.2,14.0,74,29.36,10.0,North,4.6,-,N/A,,Mostly Cloudy,10,2013-09-20 17:36:00
9:56 AM,21.2,15.8,80,29.36,10.0,NE,3.5,-,N/A,,Overcast,50,2013-09-20 17:56:00
10:16 AM,23.0,14.0,68,29.35,10.0,NNE,5.8,-,N/A,,Mostly Cloudy,30,2013-09-20 18:16:00
10:36 AM,23.0,14.0,68,29.35,10.0,NE,6.9,-,N/A,,Partly Cloudy,40,2013-09-20 18:36:00
10:56 AM,23.0,14.0,68,29.34,10.0,NNE,4.6,-,N/A,,Clear,30,2013-09-20 18:56:00
11:16 AM,23.0,15.8,74,29.34,10.0,NNE,5.8,-,N/A,,Clear,20,2013-09-20 19:16:00
11:36 AM,24.8,14.0,64,29.33,10.0,NNE,4.6,-,N/A,,Clear,20,2013-09-20 19:36:00
11:56 AM,24.8,12.2,59,29.33,10.0,ENE,6.9,-,N/A,,Clear,60,2013-09-20 19:56:00
12:16 PM,24.8,14.0,64,29.32,10.0,NE,4.6,-,N/A,,Clear,40,2013-09-20 20:16:00
12:36 PM,24.8,12.2,59,29.31,10.0,ENE,4.6,-,N/A,,Clear,70,2013-09-20 20:36:00
12:56 PM,24.8,12.2,59,29.31,10.0,ENE,4.6,-,N/A,,Clear,70,2013-09-20 20:56:00
1:16 PM,24.8,12.2,59,29.30,10.0,ENE,5.8,-,N/A,,Clear,70,2013-09-20 21:16:00
1:36 PM,24.8,12.2,59,29.29,10.0,NNE,4.6,-,N/A,,Clear,30,2013-09-20 21:36:00
1:56 PM,26.6,12.2,55,29.28,10.0,NE,5.8,-,N/A,,Clear,50,2013-09-20 21:56:00
2:16 PM,26.6,12.2,55,29.28,10.0,NE,5.8,-,N/A,,Partly Cloudy,40,2013-09-20 22:16:00
2:36 PM,26.6,12.2,55,29.27,10.0,NE,6.9,-,N/A,,Clear,40,2013-09-20 22:36:00
2:56 PM,26.6,12.2,55,29.27,10.0,NNE,8.1,-,N/A,,Clear,30,2013-09-20 22:56:00
3:16 PM,26.6,12.2,55,29.26,10.0,NE,6.9,-,N/A,,Clear,40,2013-09-20 23:16:00
3:36 PM,26.6,12.2,55,29.25,10.0,NNE,4.6,-,N/A,,Clear,30,2013-09-20 23:36:00
3:56 PM,26.6,12.2,55,29.24,10.0,NNE,5.8,-,N/A,,Clear,30,2013-09-20 23:56:00
4:16 PM,26.6,12.2,55,29.23,10.0,ENE,4.6,-,N/A,,Clear,60,2013-09-21 00:16:00
4:36 PM,26.6,12.2,55,29.23,10.0,NE,5.8,-,N/A,,Clear,40,2013-09-21 00:36:00
4:56 PM,26.6,12.2,55,29.22,10.0,ENE,5.8,-,N/A,,Clear,60,2013-09-21 00:56:00
5:16 PM,26.6,12.2,55,29.22,10.0,NE,10.4,-,N/A,,Clear,40,2013-09-21 01:16:00
5:36 PM,24.8,12.2,59,29.21,10.0,NE,9.2,-,N/A,,Clear,40,2013-09-21 01:36:00
5:56 PM,24.8,12.2,59,29.21,10.0,NE,9.2,-,N/A,,Clear,40,2013-09-21 01:56:00
6:16 PM,24.8,12.2,59,29.21,10.0,NE,8.1,-,N/A,,Clear,50,2013-09-21 02:16:00
6:36 PM,24.8,10.4,54,29.20,10.0,NE,8.1,-,N/A,,Clear,50,2013-09-21 02:36:00
6:56 PM,21.2,10.4,63,29.20,10.0,NE,6.9,-,N/A,,Clear,40,2013-09-21 02:56:00
7:16 PM,19.4,10.4,68,29.19,10.0,NNE,5.8,-,N/A,,Clear,20,2013-09-21 03:16:00
7:36 PM,19.4,8.6,63,29.19,10.0,NNE,4.6,-,N/A,,Clear,20,2013-09-21 03:36:00
7:56 PM,17.6,10.4,73,29.19,10.0,NNE,4.6,-,N/A,,Clear,30,2013-09-21 03:56:00
8:16 PM,17.6,8.6,68,29.19,10.0,North,4.6,-,N/A,,Clear,350,2013-09-21 04:16:00
8:36 PM,15.8,8.6,73,29.19,10.0,North,4.6,-,N/A,,Clear,350,2013-09-21 04:36:00
8:56 PM,15.8,8.6,73,29.18,10.0,North,3.5,-,N/A,,Clear,360,2013-09-21 04:56:00
9:16 PM,14.0,6.8,73,29.18,10.0,North,3.5,-,N/A,,Partly Cloudy,350,2013-09-21 05:16:00
9:36 PM,14.0,6.8,73,29.17,10.0,North,4.6,-,N/A,,Mostly Cloudy,350,2013-09-21 05:36:00
9:56 PM,14.0,6.8,73,29.17,10.0,Calm,Calm,-,N/A,,Scattered Clouds,0,2013-09-21 05:56:00
10:16 PM,10.4,3.2,73,29.16,10.0,Calm,Calm,-,N/A,,Clear,0,2013-09-21 06:16:00
10:36 PM,10.4,5.0,79,29.16,10.0,Calm,Calm,-,N/A,,Partly Cloudy,0,2013-09-21 06:36:00
10:56 PM,12.2,5.0,73,29.15,10.0,Calm,Calm,-,N/A,,Scattered Clouds,0,2013-09-21 06:56:00
11:16 PM,12.2,5.0,73,29.14,10.0,NNW,3.5,-,N/A,,Partly Cloudy,330,2013-09-21 07:16:00
11:36 PM,10.4,1.4,67,29.14,10.0,Calm,Calm,-,N/A,,Clear,0,2013-09-21 07:36:00
11:56 PM,10.4,3.2,73,29.13,10.0,Calm,Calm,-,N/A,,Clear,0,2013-09-21 07:56:00